Regional Weather Roundup
Issued by NWS

Home | Current Version | Previous Version | Text Only | Print | Product List | Glossary Off
Versions: 1 2 3 4 5 6 7 8 9 10 11 12 13 14 15 16 17 18 19 20 21 22 23 24 25 26 27 28 29 30 31 32 33 34 35 36 37 38 39 40 41 42 43 44 45 46 47 48 49 50

000
ASUS43 KMPX 290610
RWRMN
WEATHER ROUNDUP FOR MINNESOTA
NATIONAL WEATHER SERVICE TWIN CITIES/CHANHASSEN MN
100 AM CDT SUN MAR 29 2015


NOTE: "FAIR" INDICATES FEW OR NO CLOUDS BELOW 12,000 FEET WITH NO
SIGNIFICANT WEATHER AND/OR OBSTRUCTIONS TO VISIBILITY. N/A MEANS
CURRENT SKY AND/OR WEATHER CONDITIONS ARE NOT AVAILABLE.

MNZ060>063-068>070-290700-
   Twin Cities Metro

CITY           SKY/WX    TMP DP  RH WIND       PRES   REMARKS
TWIN CITIES    PTCLDY    36  20  52 S17G26    29.90F
6HR MIN TEMP:  35; 6HR MAX TEMP:  39;

ST PAUL        PTCLDY    36  19  50 S17G24    29.91F
CRYSTAL        PTCLDY    37  20  50 S14       29.86F
BLAINE         PTCLDY    37  21  52 S15G26    29.87F
LAKEVILLE      PTCLDY    34  21  60 S12G18    29.89F WCI  25
EDEN PRAIRIE   PTCLDY    37  20  50 S20G29    29.87F
6HR MIN TEMP:  34; 6HR MAX TEMP:  39;

SOUTH ST PAUL  PTCLDY    37  19  49 S14G25    29.91F
LAKE ELMO      FAIR      36  21  55 S17G26    29.91F
$$
MNZ001>005-007-008-013>017-022>024-027-028-290700-
   Northwest Minnesota

CITY           SKY/WX    TMP DP  RH WIND       PRES   REMARKS
BEMIDJI        CLOUDY    39  27  62 S12       29.68R
HALLOCK        MIX PCPN  39  36  87 S23       29.47F
ROSEAU         LGT RAIN  37  34  87 S20G31    29.52F
WARROAD        RAIN      39  34  81 S14G28    29.54F
THIEF RVR FALL CLOUDY    39  34  81 S24       29.54F
CROOKSTON      MIX PCPN  39  34  81 S28G35    29.55F
FOSSTON        CLOUDY    39  28  65 S21       29.60F
DETROIT LAKES  CLOUDY    43  30  61 S17G23    29.68F
MOORHEAD       LGT RAIN  43  36  75 S18G24    29.63F
PARK RAPIDS    CLOUDY    38  26  62 SW9G28    29.74R
MAHNOMEN       DRIZZLE   41  31  68 S20G28    29.61F
$$
MNZ006-009>011-018-025>026-290700-
   North Central Minnesota

CITY           SKY/WX    TMP DP  RH WIND       PRES   REMARKS
BAUDETTE       CLOUDY    39  28  64 S16G23    29.58F
FLAG ISLAND    RAIN      36  30  80 S23       29.51F
INTL FALLS     LGT RAIN  37  24  59 S10G21    29.66F
6HR MIN TEMP:  37; 6HR MAX TEMP:  42; 6HR PCP: TRACE;

WASKISH        CLOUDY    37  30  75 S12G22    29.62F
BIG FORK       CLOUDY    37  23  56 SW13G22   29.72R
LONGVILLE      CLOUDY    36  25  64 S16G22    29.68F
GRAND RAPIDS   CLOUDY    36  19  51 S24G35    29.69F
CRANE LAKE     CLOUDY    36  19  51 S10G22    29.71F
ORR            CLOUDY    34  19  55 S18G24    29.67F WCI  23
COOK           CLOUDY    34  21  60 S9G21     29.71F WCI  26
WALKER         FAIR      37  25  60 S14G32    29.70R
$$
MNZ012-019>021-037-290700-
   Northeast Minnesota

CITY           SKY/WX    TMP DP  RH WIND       PRES   REMARKS
DULUTH         MOCLDY    34  18  52 S16G26    29.80F WCI  24
6HR MIN TEMP:  33; 6HR MAX TEMP:  40;

ELY            CLOUDY    34  19  55 S16G26    29.73F WCI  23
HIBBING        CLOUDY    33  19  56 S13G23    29.73F WCI  24
EVELETH        CLOUDY    32  21  64 S14       29.75F WCI  22
DULUTH HARBOR  MOCLDY    37  19  48 SW14      29.85F
TWO HARBORS    CLOUDY    36  21  55 SW9       29.81F
SILVER BAY     CLOUDY    36  19  51 S12G17    29.81F
GRAND MARAIS     N/A     32  23  69 W5        29.85F WCI  27
G MARAIS ARPRT CLOUDY    28  16  59 S13G23    29.79F WCI  18
$$
MNZ029>031-032-039>041-046>048-054>057-064-290700-
   West Central Minnesota

CITY           SKY/WX    TMP DP  RH WIND       PRES   REMARKS
FERGUS FALLS   CLOUDY    39  27  60 S13       29.74R
WHEATON        CLOUDY    39  28  65 SW6       29.73R
MORRIS         MOCLDY    37  30  75 SE20G25   29.66F
ALEXANDRIA     CLOUDY    39  27  62 S24G33    29.69F
ELBOW LAKE     FAIR      38  29  71 SW17      29.74R
WADENA         CLOUDY    37  27  65 S20G25    29.68F
GLENWOOD       MOCLDY    37  28  70 S23G32    29.71F
APPLETON       PTCLDY    43  28  56 S16       29.68F
BENSON         PTCLDY    37  28  70 S15G22    29.71F
ORTONVILLE     PTCLDY    43  30  61 SE15G23   29.63F
MADISON        PTCLDY    45  30  57 S26G33    29.65F
WILLMAR        FAIR      37  28  70 SE16G22   29.76F
$$
MNZ033>034-036-042>043-049>051-058-059-290700-
   Central Minnesota

CITY           SKY/WX    TMP DP  RH WIND       PRES   REMARKS
ST CLOUD       PTCLDY    36  23  59 S16       29.80F
6HR MIN TEMP:  35; 6HR MAX TEMP:  41;

SAUK CENTRE    FAIR      36  27  69 S18G25    29.74F
PAYNESVILLE    PTCLDY    35  25  68 SE21G28   29.77F WCI  23
AITKIN         CLOUDY    37  25  60 S14G20    29.74F
PINE RIVER     CLOUDY    36  25  64 S13       29.74F
BRAINERD       CLOUDY    36  23  59 S16G32    29.74F
STAPLES        CLOUDY    37  25  60 S22G28    29.70F
LONG PRAIRIE   FAIR      36  27  69 SE22G35   29.73F
LITTLE FALLS   MOCLDY    36  23  60 S16       29.77F
LITCHFIELD     PTCLDY    37  27  65 S6G25     29.80F
BUFFALO        PTCLDY    37  21  52 S9G17     29.86F
MAPLE LAKE     PTCLDY    37  26  63 SE12G17   29.84F
$$
MNZ037-044-045-052-053-290700-
   East Central Minnesota

CITY           SKY/WX    TMP DP  RH WIND       PRES   REMARKS
PRINCETON      PTCLDY    37  21  52 SE17G23   29.82F
MORA           MOCLDY    34  21  60 S9G17     29.84F WCI  26
CAMBRIDGE      MOCLDY    37  23  56 S13       29.83F
RUSH CITY      MOCLDY    35  20  52 S17       29.86F WCI  25
MOOSE LAKE     MOCLDY    34  19  55 S12G20    29.80F WCI  25
HINCKLEY       FAIR      34  21  60 S13G18    29.84F WCI  25
CLOQUET        MOCLDY    34  18  51 S12G18    29.80F WCI  25
MCGREGOR       MOCLDY    34  23  64 S16       29.77F WCI  23
$$
MNZ071>073-080-081-089-090-097-098-290700-
   Southwest Minnesota

CITY           SKY/WX    TMP DP  RH WIND       PRES   REMARKS
MONTEVIDEO     FAIR      39  30  70 S17G26    29.72F
GRANITE FALLS  CLEAR     39  30  68 SE23G29   29.74F
CANBY          PTCLDY    45  31  58 S22G31    29.66F
MARSHALL       CLEAR     43  27  52 S20G30    29.72F
REDWOOD FALLS  CLEAR     38  28  67 S20       29.77F
OLIVIA         CLEAR     36  28  75 S17       29.76F
PIPESTONE      PTCLDY    39  30  70 S24G32    29.72F
WINDOM         CLEAR     39  28  65 S20G29    29.78F
WORTHINGTON    CLEAR     37  27  65 S29G36    29.78F
JACKSON        CLEAR     37  28  70 S23G33    29.82F
TRACY          CLEAR     40  30  67 S24G37    29.70F
SLAYTON        CLEAR     38  28  64 S26G33    29.75F
$$
MNZ065>067-074>077-082>085-091>093-290700-
   South Central Minnesota

CITY           SKY/WX    TMP DP  RH WIND       PRES   REMARKS
MANKATO        CLEAR     37  21  52 S16G26    29.88S
NEW ULM        CLEAR     36  25  64 S17G24    29.84F
ST JAMES       CLEAR     37  27  65 SE23G33   29.85F
FAIRMONT       CLEAR     36  23  60 S23G29    29.85F
GLENCOE        CLEAR     37  27  67 S10G21    29.85S
FARIBAULT      CLEAR     36  21  55 S17G30    29.91F
OWATONNA       CLEAR     36  21  55 S21G30    29.91F
WASECA         CLEAR     37  23  56 S24G36    29.91F
ALBERT LEA     CLEAR     36  21  55 S20G29    29.91F
$$
MNZ078>079-086>088-094>096-290700-
   Southeast Minnesota

CITY           SKY/WX    TMP DP  RH WIND       PRES   REMARKS
ROCHESTER      CLEAR     31  19  61 S23G31    29.94F WCI  18
6HR MIN TEMP:  31; 6HR MAX TEMP:  35;

RED WING       MOCLDY    36  16  44 S14G20    29.94F
STANTON        CLEAR     35  21  57 S17G26    29.90F WCI  24
DODGE CENTER   PTCLDY    32  21  64 S22       29.92F WCI  19
WINONA         MOCLDY    36  18  48 S8        30.02F
AUSTIN         CLEAR     34  19  55 S20G25    29.95F WCI  22
PRESTON        PTCLDY    31  18  59 S20G29    29.99F WCI  19
$$
ABBREVIATIONS USED IN REMARKS
   TC - TEMPERATURES IN CELSIUS
  WCI - WIND CHILL INDEX
   HX - HEAT INDEX
  VSB - VISIBILITY
$$


USA.gov is the U.S. government's official web portal to all federal, state and local government web resources and services.